Date,Time,Wetness (Wet Dry or Ice),Wind Speed (m/s),Temperature (C),Humidity (%),Pressure (mb),Radiation (W/m^2)
2019-05-16,00:10:00,DRY,2.73,14.37,13.0,772.00,1.2
2019-05-16,00:15:00,DRY,3.00,14.35,13.0,772.00,1.3
2019-05-16,00:20:00,DRY,2.67,14.33,13.0,772.00,0.8
2019-05-16,00:25:00,DRY,3.25,14.40,13.0,772.00,1.3
2019-05-16,00:30:00,DRY,2.73,14.30,13.0,772.00,1.5
2019-05-16,00:35:00,DRY,3.90,14.30,13.5,772.00,1.0
2019-05-16,00:40:00,DRY,2.40,14.20,13.7,772.00,2.1
2019-05-16,00:45:00,DRY,2.60,14.25,13.0,772.00,1.1
2019-05-16,00:50:00,DRY,3.83,14.33,13.0,772.00,1.3
2019-05-16,00:55:00,DRY,2.70,14.35,13.0,772.00,1.0
2019-05-16,01:00:00,DRY,2.90,14.10,13.0,772.00,1.2
2019-05-16,01:05:00,DRY,2.05,13.95,13.0,772.00,1.4
2019-05-16,01:10:00,DRY,2.77,13.90,13.0,772.00,1.1
2019-05-16,01:15:00,DRY,1.30,14.25,13.0,772.00,1.6
2019-05-16,01:20:00,DRY,1.40,14.20,13.0,772.00,1.3
2019-05-16,01:25:00,DRY,3.00,14.15,12.5,772.00,1.6
2019-05-16,01:30:00,DRY,1.63,14.13,12.3,772.00,2.1
2019-05-16,01:35:00,DRY,1.95,14.05,12.5,772.00,1.1
2019-05-16,01:40:00,DRY,1.03,14.07,12.7,772.00,1.5
2019-05-16,01:45:00,DRY,1.95,14.00,13.0,772.00,2.1
2019-05-16,01:50:00,DRY,1.97,14.13,13.0,772.00,0.7
2019-05-16,01:55:00,DRY,3.05,13.95,13.0,771.50,0.8
2019-05-16,02:00:00,DRY,5.03,13.97,13.0,771.33,1.0
2019-05-16,02:05:00,DRY,1.95,14.10,12.0,772.00,1.0
2019-05-16,02:10:00,DRY,2.13,14.13,12.0,771.67,0.6
2019-05-16,02:15:00,DRY,0.75,14.15,12.0,771.50,0.8
2019-05-16,02:20:00,DRY,1.87,14.17,12.0,772.00,2.0
2019-05-16,02:25:00,DRY,2.15,14.25,12.0,771.50,0.7
2019-05-16,02:30:00,DRY,1.97,14.27,12.0,771.67,0.6
2019-05-16,02:35:00,DRY,1.45,14.25,11.5,771.50,2.0
2019-05-16,02:40:00,DRY,1.53,14.23,11.3,772.00,1.5
2019-05-16,02:45:00,DRY,3.40,14.00,12.0,771.50,1.4
2019-05-16,02:50:00,DRY,1.53,13.97,13.3,771.33,0.7
2019-05-16,02:55:00,DRY,1.90,13.75,13.0,771.00,1.4
2019-05-16,03:00:00,DRY,2.03,13.73,13.7,771.00,1.5
2019-05-16,03:05:00,DRY,1.55,13.85,13.0,771.00,1.6
2019-05-16,03:10:00,DRY,1.03,13.83,13.0,771.00,1.4
2019-05-16,03:15:00,DRY,2.60,13.95,12.0,771.00,1.0
2019-05-16,03:20:00,DRY,1.90,13.83,13.0,771.00,1.5
2019-05-16,03:25:00,DRY,2.00,13.80,12.5,771.00,1.7
2019-05-16,03:30:00,DRY,1.20,13.90,12.3,771.00,1.3
2019-05-16,03:35:00,DRY,2.35,13.90,12.0,771.00,1.5
2019-05-16,03:40:00,DRY,1.23,13.87,12.0,771.00,1.4
2019-05-16,03:45:00,DRY,0.80,13.75,12.5,771.00,1.6
2019-05-16,03:50:00,DRY,1.53,13.83,12.0,771.00,2.0
2019-05-16,03:55:00,DRY,1.05,13.80,12.0,771.00,0.7
2019-05-16,04:00:00,DRY,1.03,13.83,12.0,771.00,0.8
2019-05-16,04:05:00,DRY,1.45,13.90,12.0,771.00,1.1
2019-05-16,04:10:00,DRY,1.30,13.90,12.0,771.00,1.1
2019-05-16,04:15:00,DRY,0.80,13.95,12.0,771.00,1.5
2019-05-16,04:20:00,DRY,1.90,13.87,12.0,771.00,1.4
2019-05-16,04:25:00,DRY,2.60,13.95,11.0,771.00,0.9
2019-05-16,04:30:00,DRY,1.57,14.00,11.3,771.00,1.8
2019-05-16,04:35:00,DRY,0.50,14.10,10.5,771.00,1.3
2019-05-16,04:40:00,DRY,2.17,14.43,10.0,771.00,1.4
2019-05-16,04:45:00,DRY,3.40,14.35,10.0,771.00,1.6
2019-05-16,04:50:00,DRY,3.50,14.20,10.0,771.00,0.7
2019-05-16,04:55:00,DRY,1.70,14.50,10.0,771.00,0.2
2019-05-16,05:00:00,DRY,3.07,14.60,10.0,771.00,1.6
2019-05-16,05:05:00,DRY,2.05,14.50,10.0,771.00,2.1
2019-05-16,05:10:00,DRY,0.87,14.40,10.0,771.00,1.4
2019-05-16,05:15:00,DRY,2.70,14.35,10.0,771.00,1.6
2019-05-16,05:20:00,DRY,1.50,14.20,10.0,771.00,2.3
2019-05-16,05:25:00,DRY,0.95,14.15,10.0,771.00,1.9
2019-05-16,05:30:00,DRY,1.13,14.33,10.0,771.00,1.6
2019-05-16,05:35:00,DRY,2.30,14.35,10.0,771.00,1.4
2019-05-16,05:40:00,DRY,2.40,14.30,9.7,771.00,0.8
2019-05-16,05:45:00,DRY,1.00,13.95,10.0,771.00,1.6
2019-05-16,05:50:00,DRY,1.57,13.67,10.3,771.00,1.6
2019-05-16,05:55:00,DRY,1.70,13.85,10.0,771.00,0.9
2019-05-16,06:00:00,DRY,1.60,14.10,10.0,771.00,1.0
2019-05-16,06:05:00,DRY,2.35,14.40,10.0,771.00,1.6
2019-05-16,06:10:00,DRY,1.50,14.33,10.0,771.00,4.0
2019-05-16,06:15:00,DRY,1.30,14.40,10.0,771.00,5.3
2019-05-16,06:20:00,DRY,1.47,14.43,9.7,771.00,6.2
2019-05-16,06:25:00,DRY,0.95,14.80,9.5,771.00,8.8
2019-05-16,06:30:00,DRY,1.77,14.67,10.0,771.00,16.6
2019-05-16,06:35:00,DRY,2.10,14.70,10.0,771.00,36.5
2019-05-16,06:40:00,DRY,1.50,14.70,10.0,771.00,42.7
2019-05-16,06:45:00,DRY,2.45,14.20,11.0,771.00,29.1
2019-05-16,06:50:00,DRY,2.70,13.93,11.0,771.00,37.3
2019-05-16,06:55:00,DRY,3.30,14.05,11.0,771.00,93.0
2019-05-16,07:00:00,DRY,2.90,14.10,11.0,771.00,185.3
2019-05-16,07:05:00,DRY,2.25,14.55,10.5,771.00,178.8
2019-05-16,07:10:00,DRY,1.80,14.73,10.0,771.00,102.6
2019-05-16,07:15:00,DRY,2.25,14.55,11.0,771.00,89.7
2019-05-16,07:20:00,DRY,2.23,14.53,11.3,771.00,211.2
2019-05-16,07:25:00,DRY,1.30,14.50,11.5,771.00,123.8
2019-05-16,07:30:00,DRY,3.27,14.47,11.0,771.00,148.8
2019-05-16,07:35:00,DRY,2.25,14.75,11.0,771.00,182.8
2019-05-16,07:40:00,DRY,2.07,15.03,10.7,771.00,208.9
2019-05-16,07:45:00,DRY,3.15,15.05,12.0,771.00,193.9
2019-05-16,07:50:00,DRY,3.00,15.03,12.3,771.00,347.4
2019-05-16,07:55:00,DRY,3.30,15.10,12.0,771.00,199.4
2019-05-16,08:00:00,DRY,4.23,14.97,12.3,771.00,158.6
2019-05-16,08:05:00,DRY,3.25,15.00,12.5,771.00,448.2
2019-05-16,08:10:00,DRY,2.80,15.27,12.7,771.00,254.7
2019-05-16,08:15:00,DRY,4.70,15.00,13.0,771.00,108.2
2019-05-16,08:20:00,DRY,4.70,14.77,13.3,771.00,133.6
2019-05-16,08:25:00,DRY,6.60,14.70,13.0,771.00,129.8
2019-05-16,08:30:00,DRY,3.80,14.73,13.7,771.00,226.3
2019-05-16,08:35:00,DRY,3.00,14.75,14.5,771.00,225.8
2019-05-16,08:40:00,DRY,4.13,14.80,14.0,771.33,164.1
2019-05-16,08:45:00,DRY,3.05,14.75,14.0,771.00,172.2
2019-05-16,08:50:00,DRY,5.30,14.87,14.3,771.00,418.4
2019-05-16,08:55:00,DRY,2.65,15.25,13.5,771.00,342.9
2019-05-16,09:00:00,DRY,3.73,15.20,13.0,771.00,247.2
2019-05-16,09:05:00,DRY,4.95,15.35,13.5,771.00,266.1
2019-05-16,09:10:00,DRY,4.60,15.27,13.7,771.00,373.2
2019-05-16,09:15:00,DRY,4.30,15.25,14.0,771.00,256.8
2019-05-16,09:20:00,DRY,3.20,15.03,15.3,771.33,232.7
2019-05-16,09:25:00,DRY,2.20,15.15,12.5,771.00,247.1
2019-05-16,09:30:00,DRY,2.13,15.17,15.3,771.00,309.0
2019-05-16,09:35:00,DRY,2.45,15.10,14.5,772.00,369.9
2019-05-16,09:40:00,DRY,3.43,15.27,14.3,771.67,327.3
2019-05-16,09:45:00,DRY,3.85,15.40,13.5,771.50,380.0
2019-05-16,09:50:00,DRY,1.87,15.37,15.7,772.00,400.5
2019-05-16,09:55:00,DRY,2.10,15.75,15.0,772.00,727.9
2019-05-16,10:00:00,DRY,2.20,15.97,14.7,772.00,671.0
2019-05-16,10:05:00,DRY,3.00,16.25,14.0,772.00,1029.2
2019-05-16,10:10:00,DRY,2.17,17.03,14.3,771.67,865.9
2019-05-16,10:15:00,DRY,3.65,16.85,15.5,771.50,739.3
2019-05-16,10:20:00,DRY,3.27,16.60,15.3,772.00,417.8
2019-05-16,10:25:00,DRY,5.60,16.05,14.5,772.00,496.2
2019-05-16,10:30:00,DRY,5.83,15.43,14.3,772.00,481.2
2019-05-16,10:35:00,DRY,2.25,15.85,15.0,772.00,470.9
2019-05-16,10:40:00,DRY,3.93,16.00,14.0,772.00,594.6
2019-05-16,10:45:00,DRY,6.45,15.95,14.0,771.50,357.4
2019-05-16,10:50:00,DRY,3.13,15.90,14.3,772.00,835.5
2019-05-16,10:55:00,DRY,2.90,16.50,15.0,772.00,535.8
2019-05-16,11:00:00,DRY,2.67,16.03,14.7,772.00,330.2
2019-05-16,11:05:00,DRY,2.70,15.75,15.0,772.00,390.1
2019-05-16,11:10:00,DRY,6.30,15.50,14.7,771.67,375.8
2019-05-16,11:15:00,DRY,5.70,15.50,17.5,772.00,396.1
2019-05-16,11:20:00,DRY,4.03,15.23,16.3,772.00,559.9
2019-05-16,11:25:00,DRY,2.10,15.75,16.5,772.00,1053.8
2019-05-16,11:30:00,DRY,3.27,16.20,17.0,772.00,1074.8
2019-05-16,11:35:00,DRY,6.30,16.35,14.0,772.00,1170.8
2019-05-16,11:40:00,DRY,4.93,16.43,15.7,771.33,1105.0
2019-05-16,11:45:00,DRY,2.90,17.05,13.5,772.00,853.2
2019-05-16,11:50:00,DRY,4.60,16.13,15.3,771.00,1183.0
2019-05-16,11:55:00,DRY,4.05,16.30,15.5,772.00,1185.3
2019-05-16,12:00:00,DRY,4.27,17.10,15.0,771.33,1207.9
2019-05-16,12:05:00,DRY,4.25,16.60,14.5,771.00,1191.8
2019-05-16,12:10:00,DRY,5.53,16.90,16.0,771.00,676.1
2019-05-16,12:15:00,DRY,1.95,16.45,17.0,771.50,840.3
2019-05-16,12:20:00,DRY,3.63,16.87,16.3,771.33,1177.7
2019-05-16,12:25:00,DRY,2.05,16.55,15.0,771.50,1072.7
2019-05-16,12:30:00,DRY,4.63,16.53,15.0,771.00,982.0
2019-05-16,12:35:00,DRY,3.65,16.25,14.5,771.00,1155.4
2019-05-16,12:40:00,DRY,3.60,16.60,17.3,771.33,1191.9
2019-05-16,12:45:00,DRY,4.85,16.60,16.5,771.00,1198.9
2019-05-16,12:50:00,DRY,6.70,16.60,16.3,771.00,1169.4
2019-05-16,12:55:00,DRY,3.15,16.65,15.5,771.50,1199.8
2019-05-16,13:00:00,DRY,3.07,16.33,15.7,771.33,1169.5
2019-05-16,13:05:00,DRY,4.85,17.50,19.0,771.50,1183.0
2019-05-16,13:10:00,DRY,5.30,17.83,16.7,771.67,1195.4
2019-05-16,13:15:00,DRY,1.30,16.85,15.0,771.50,1169.2
2019-05-16,13:20:00,DRY,3.87,16.40,18.0,771.67,1120.1
2019-05-16,13:25:00,DRY,3.55,18.00,18.5,771.00,772.4
2019-05-16,13:30:00,DRY,3.50,17.70,17.0,771.00,1159.4
2019-05-16,13:35:00,DRY,5.00,16.80,19.0,771.00,1142.1
2019-05-16,13:40:00,DRY,1.37,17.87,17.0,771.67,1142.9
2019-05-16,13:45:00,DRY,3.00,17.35,17.0,771.50,1142.3
2019-05-16,13:50:00,DRY,3.73,17.57,15.7,771.00,1145.1
2019-05-16,13:55:00,DRY,4.70,17.90,15.0,771.00,1142.2
2019-05-16,14:00:00,DRY,6.07,16.60,17.0,771.00,1132.1
2019-05-16,14:05:00,DRY,3.65,16.40,15.0,771.00,1125.0
2019-05-16,14:10:00,DRY,5.07,17.40,15.7,771.00,1119.9
2019-05-16,14:15:00,DRY,2.40,18.05,14.0,771.00,1114.0
2019-05-16,14:20:00,DRY,3.53,16.80,14.3,771.00,1106.6
2019-05-16,14:25:00,DRY,1.15,17.20,16.0,771.00,1107.3
2019-05-16,14:30:00,DRY,3.47,17.70,13.7,771.00,1108.0
2019-05-16,14:35:00,DRY,4.55,17.75,14.5,771.00,1004.3
2019-05-16,14:40:00,DRY,3.73,17.17,15.3,771.00,985.9
2019-05-16,14:45:00,DRY,1.25,17.60,14.5,771.00,1073.0
2019-05-16,14:50:00,DRY,4.37,18.03,13.7,771.00,1069.3
2019-05-16,14:55:00,DRY,4.25,17.50,13.0,771.00,1063.0
2019-05-16,15:00:00,DRY,6.23,17.30,11.0,771.00,1060.7
2019-05-16,15:05:00,DRY,4.70,16.95,11.5,771.00,1041.5
2019-05-16,15:10:00,DRY,4.23,17.50,12.0,771.00,1035.8
2019-05-16,15:15:00,DRY,5.20,17.85,11.0,770.50,1031.9
2019-05-16,15:20:00,DRY,3.03,18.03,10.3,771.00,895.0
2019-05-16,15:25:00,DRY,4.80,18.05,10.5,771.00,1017.8
2019-05-16,15:30:00,DRY,6.03,17.87,10.7,771.00,991.8
2019-05-16,15:35:00,DRY,6.55,17.80,10.5,771.00,950.0
2019-05-16,15:40:00,DRY,3.73,17.50,11.0,771.00,958.1
2019-05-16,15:45:00,DRY,2.15,16.95,11.0,771.00,943.5
2019-05-16,15:50:00,DRY,4.83,16.73,10.3,770.67,930.9
2019-05-16,15:55:00,DRY,3.35,16.80,10.0,771.00,915.7
2019-05-16,16:00:00,DRY,3.90,17.30,9.7,770.67,890.1
2019-05-16,16:05:00,DRY,4.40,16.80,10.0,771.00,890.0
2019-05-16,16:10:00,DRY,4.17,17.37,9.7,770.67,868.5
2019-05-16,16:15:00,DRY,3.65,17.25,10.5,771.00,857.5
2019-05-16,16:20:00,DRY,5.57,16.53,10.7,770.33,828.7
2019-05-16,16:25:00,DRY,5.30,16.30,10.5,770.00,810.2
2019-05-16,16:30:00,DRY,4.10,16.37,10.3,770.67,801.3
2019-05-16,16:35:00,DRY,5.15,17.70,10.0,771.00,782.4
2019-05-16,16:40:00,DRY,9.13,17.33,8.3,770.00,763.3
2019-05-16,16:45:00,DRY,3.05,16.45,9.0,770.50,744.5
2019-05-16,16:50:00,DRY,4.43,16.83,9.7,770.67,724.0
2019-05-16,16:55:00,DRY,6.75,16.45,9.5,770.00,704.5
2019-05-16,17:00:00,DRY,5.00,16.93,9.3,771.00,686.0
2019-05-16,17:05:00,DRY,3.80,16.25,10.5,770.50,666.0
2019-05-16,17:10:00,DRY,3.50,15.90,10.0,770.67,646.9
2019-05-16,17:15:00,DRY,4.20,15.85,11.0,771.00,626.2
2019-05-16,17:20:00,DRY,2.23,15.13,12.0,771.00,607.8
2019-05-16,17:25:00,DRY,2.10,15.90,12.5,771.00,587.0
2019-05-16,17:30:00,DRY,2.30,15.43,11.3,770.67,566.6
2019-05-16,17:35:00,DRY,3.35,15.50,11.0,771.00,547.5
2019-05-16,17:40:00,DRY,2.70,15.87,11.0,771.00,526.0
2019-05-16,17:45:00,DRY,2.60,16.20,10.0,771.00,506.3
2019-05-16,17:50:00,DRY,3.13,16.33,9.3,770.67,483.9
2019-05-16,17:55:00,DRY,3.70,16.00,9.5,770.50,463.5
2019-05-16,18:00:00,DRY,1.67,16.20,10.0,771.00,441.8
2019-05-16,18:05:00,DRY,3.15,16.25,8.5,770.50,419.9
2019-05-16,18:10:00,DRY,2.20,16.20,8.7,771.00,397.2
2019-05-16,18:15:00,DRY,4.80,15.90,8.5,771.00,375.1
2019-05-16,18:20:00,DRY,3.60,16.03,8.3,771.00,354.8
2019-05-16,18:25:00,DRY,7.00,15.95,7.5,771.00,336.6
2019-05-16,18:30:00,DRY,2.87,15.37,8.3,771.00,316.3
2019-05-16,18:35:00,DRY,3.60,15.60,7.5,771.00,295.8
2019-05-16,18:40:00,DRY,4.33,15.47,8.3,771.00,270.7
2019-05-16,18:45:00,DRY,5.25,15.10,7.0,771.00,247.1
2019-05-16,18:50:00,DRY,5.33,14.90,7.0,771.00,224.9
2019-05-16,18:55:00,DRY,3.05,15.15,7.5,771.00,204.4
2019-05-16,19:00:00,DRY,5.57,14.87,7.0,771.00,184.8
2019-05-16,19:05:00,DRY,2.65,14.50,7.0,771.00,166.7
2019-05-16,19:10:00,DRY,2.27,14.73,7.0,771.00,149.0
2019-05-16,19:15:00,DRY,3.60,14.75,7.0,771.00,131.5
2019-05-16,19:20:00,DRY,2.37,13.97,7.0,771.00,108.6
2019-05-16,19:25:00,DRY,2.20,13.95,7.0,771.00,86.2
2019-05-16,19:30:00,DRY,3.43,13.90,7.0,771.00,64.8
2019-05-16,19:35:00,DRY,5.35,13.80,6.5,771.00,47.5
2019-05-16,19:40:00,DRY,4.67,13.70,6.0,771.00,32.0
2019-05-16,19:45:00,DRY,3.95,13.70,6.0,771.00,20.0
2019-05-16,19:50:00,DRY,4.30,13.67,6.0,771.00,13.4
2019-05-16,19:55:00,DRY,3.55,13.75,6.0,771.00,10.4
2019-05-16,20:00:00,DRY,3.47,13.67,6.0,771.00,6.7
2019-05-16,20:05:00,DRY,5.20,13.55,6.0,771.00,3.7
2019-05-16,20:10:00,DRY,3.23,13.60,6.7,771.00,2.2
2019-05-16,20:15:00,DRY,2.20,13.50,7.0,771.00,1.5
2019-05-16,20:20:00,DRY,5.43,13.40,6.7,771.00,1.2
2019-05-16,20:25:00,DRY,4.15,13.35,7.0,771.00,1.6
2019-05-16,20:30:00,DRY,4.67,13.17,7.3,771.00,1.1
2019-05-16,20:35:00,DRY,5.25,13.20,7.0,771.00,1.1
2019-05-16,20:40:00,DRY,3.87,13.03,7.0,771.00,1.5
2019-05-16,20:45:00,DRY,3.25,12.85,7.0,771.00,0.9
2019-05-16,20:50:00,DRY,2.90,12.90,7.0,771.00,1.2
2019-05-16,20:55:00,DRY,1.70,12.80,7.0,771.50,1.2
2019-05-16,21:00:00,DRY,4.27,12.80,7.0,771.33,1.4
2019-05-16,21:05:00,DRY,3.65,12.70,7.0,771.50,0.7
2019-05-16,21:10:00,DRY,5.57,12.80,7.0,771.67,1.6
2019-05-16,21:15:00,DRY,4.40,12.75,7.0,772.00,1.0
2019-05-16,21:20:00,DRY,3.93,12.97,7.0,772.00,1.2
2019-05-16,21:25:00,DRY,3.60,12.80,7.0,772.00,1.4
2019-05-16,21:30:00,DRY,2.47,12.70,7.0,772.00,1.2
2019-05-16,21:35:00,DRY,2.15,12.70,7.0,772.00,0.8
2019-05-16,21:40:00,DRY,2.93,12.77,7.0,772.00,1.2
2019-05-16,21:45:00,DRY,2.25,12.70,7.0,772.00,0.8
2019-05-16,21:50:00,DRY,2.63,12.77,7.0,772.00,1.3
2019-05-16,21:55:00,DRY,4.05,12.75,7.0,772.00,0.9
2019-05-16,22:00:00,DRY,3.63,12.70,7.0,772.00,1.4
2019-05-16,22:05:00,DRY,4.85,12.65,7.0,772.00,1.2
2019-05-16,22:10:00,DRY,3.33,12.63,7.0,772.00,1.2
2019-05-16,22:15:00,DRY,2.70,12.50,7.0,772.00,1.4
2019-05-16,22:20:00,DRY,1.90,12.47,7.0,772.00,1.2
2019-05-16,22:25:00,DRY,1.35,12.30,8.0,772.00,1.4
2019-05-16,22:30:00,DRY,2.07,12.30,8.0,772.00,1.4
2019-05-16,22:35:00,DRY,1.90,12.30,8.0,772.00,1.1
2019-05-16,22:40:00,DRY,3.70,12.33,8.0,772.00,0.8
2019-05-16,22:45:00,DRY,2.45,12.30,8.0,772.00,1.5
2019-05-16,22:50:00,DRY,2.53,12.27,8.0,772.00,1.5
2019-05-16,22:55:00,DRY,2.85,12.10,8.0,772.00,1.4
2019-05-16,23:00:00,DRY,4.13,12.23,8.0,772.00,0.9
2019-05-16,23:05:00,DRY,2.75,12.15,8.0,772.00,1.4
2019-05-16,23:10:00,DRY,0.63,12.10,8.0,772.00,1.5
2019-05-16,23:15:00,DRY,1.40,12.15,8.0,772.00,1.1
2019-05-16,23:20:00,DRY,1.33,12.23,8.0,772.00,1.2
2019-05-16,23:25:00,DRY,2.20,12.05,8.0,772.00,1.4
2019-05-16,23:30:00,DRY,1.47,12.17,8.0,772.00,1.8
2019-05-16,23:35:00,DRY,2.35,12.35,8.0,772.00,0.8
2019-05-16,23:40:00,DRY,2.00,12.20,8.0,772.00,1.4
2019-05-16,23:45:00,DRY,3.60,12.20,8.0,772.00,1.4
2019-05-16,23:50:00,DRY,2.47,12.13,8.3,772.00,1.3
2019-05-16,23:55:00,DRY,1.60,12.15,8.0,772.00,0.9
2019-05-17,00:00:00,DRY,2.60,12.20,8.0,772.00,0.7
2019-05-17,00:05:00,DRY,1.45,12.15,8.0,772.00,0.9
2019-05-17,00:10:00,DRY,2.77,12.23,8.0,772.00,0.9
2019-05-17,00:15:00,DRY,3.00,12.25,8.0,772.00,1.4
2019-05-17,00:20:00,DRY,3.20,12.33,8.0,772.00,1.0
2019-05-17,00:25:00,DRY,3.60,12.15,8.0,772.00,1.0
2019-05-17,00:30:00,DRY,1.87,12.13,8.0,772.00,0.4
2019-05-17,00:35:00,DRY,3.30,12.35,8.0,772.00,0.9
2019-05-17,00:40:00,DRY,2.50,12.30,8.0,772.00,1.5
2019-05-17,00:45:00,DRY,1.50,12.20,8.0,772.00,1.2
2019-05-17,00:50:00,DRY,2.70,12.20,8.0,772.00,1.5
2019-05-17,00:55:00,DRY,4.10,12.50,8.0,771.50,1.1
2019-05-17,01:00:00,DRY,6.50,12.47,8.0,772.00,1.1
2019-05-17,01:05:00,DRY,4.35,12.35,8.0,772.00,1.4
2019-05-17,01:10:00,DRY,3.67,12.30,8.0,771.67,1.2
2019-05-17,01:15:00,DRY,4.15,12.15,8.0,772.00,0.8
2019-05-17,01:20:00,DRY,2.93,12.13,8.3,772.00,1.3
2019-05-17,01:25:00,DRY,2.90,12.10,8.0,772.00,1.1
2019-05-17,01:30:00,DRY,1.87,11.97,8.7,771.33,2.0
2019-05-17,01:35:00,DRY,2.30,11.95,8.5,771.00,1.4
2019-05-17,01:40:00,DRY,3.27,11.90,8.3,771.00,1.6
2019-05-17,01:45:00,DRY,4.65,12.20,8.0,771.00,1.2
2019-05-17,01:50:00,DRY,2.60,12.00,8.0,771.00,1.5
2019-05-17,01:55:00,DRY,4.60,12.05,8.0,771.00,1.4
2019-05-17,02:00:00,DRY,3.95,12.05,8.0,771.00,0.4
2019-05-17,02:05:00,DRY,1.45,12.10,8.0,771.00,2.0
2019-05-17,02:10:00,DRY,4.35,12.15,8.0,771.00,1.2
2019-05-17,02:15:00,DRY,1.95,12.05,8.0,771.00,1.3
2019-05-17,02:20:00,DRY,2.17,11.90,8.7,771.00,0.2
2019-05-17,02:25:00,DRY,2.35,11.95,8.5,771.00,1.1
2019-05-17,02:30:00,DRY,2.00,12.27,8.7,771.00,1.2
2019-05-17,02:35:00,DRY,0.95,12.15,9.0,771.00,1.1
2019-05-17,02:40:00,DRY,2.00,11.93,9.0,771.00,1.0
2019-05-17,02:45:00,DRY,3.70,11.75,9.0,771.00,1.1
2019-05-17,02:50:00,DRY,4.67,12.17,9.0,771.00,1.2
2019-05-17,02:55:00,DRY,2.35,12.00,9.0,771.00,0.2
2019-05-17,03:00:00,DRY,3.53,12.10,9.0,771.00,1.0
2019-05-17,03:05:00,DRY,4.40,12.00,9.0,771.00,1.6
2019-05-17,03:10:00,DRY,4.20,12.17,9.0,771.00,1.3
2019-05-17,03:15:00,DRY,1.85,12.00,9.0,771.00,1.9
2019-05-17,03:20:00,DRY,4.37,12.07,9.3,771.00,1.3
2019-05-17,03:25:00,DRY,3.75,12.20,9.0,771.00,1.6
2019-05-17,03:30:00,DRY,3.17,12.00,9.0,771.00,1.8
2019-05-17,03:35:00,DRY,2.35,11.80,10.0,771.00,1.2
2019-05-17,03:40:00,DRY,3.33,11.63,9.3,770.67,1.1
2019-05-17,03:45:00,DRY,4.25,11.75,9.0,770.00,0.8
2019-05-17,03:50:00,DRY,5.27,11.83,9.0,770.67,1.6
2019-05-17,03:55:00,DRY,2.90,11.90,9.0,771.00,1.0
2019-05-17,04:00:00,DRY,4.10,11.80,9.0,771.00,0.9
2019-05-17,04:05:00,DRY,4.45,11.80,9.0,770.50,0.8
2019-05-17,04:10:00,DRY,4.13,11.83,9.0,770.33,0.9
2019-05-17,04:15:00,DRY,3.40,11.90,8.5,771.00,1.2
2019-05-17,04:20:00,DRY,3.37,11.80,8.0,771.00,1.0
2019-05-17,04:25:00,DRY,2.15,11.60,8.5,770.50,1.3
2019-05-17,04:30:00,DRY,3.20,11.63,8.0,771.00,1.2
2019-05-17,04:35:00,DRY,1.95,11.65,8.0,771.00,1.2
2019-05-17,04:40:00,DRY,1.20,11.47,8.7,771.00,1.0
2019-05-17,04:45:00,DRY,1.85,11.50,8.5,771.00,1.1
2019-05-17,04:50:00,DRY,1.60,11.53,8.0,771.00,1.8
2019-05-17,04:55:00,DRY,1.55,11.45,8.0,771.00,1.1
2019-05-17,05:00:00,DRY,2.13,11.37,8.0,771.00,1.2
2019-05-17,05:05:00,DRY,1.05,11.20,8.0,771.00,1.2
2019-05-17,05:10:00,DRY,1.43,11.33,8.0,771.00,2.0
2019-05-17,05:15:00,DRY,1.80,11.35,8.0,771.00,0.5
2019-05-17,05:20:00,DRY,1.77,11.13,8.0,771.00,1.1
2019-05-17,05:25:00,DRY,1.05,10.95,8.0,771.00,0.7
2019-05-17,05:30:00,DRY,2.20,10.93,8.7,771.00,1.2
2019-05-17,05:35:00,DRY,1.90,11.05,8.5,771.00,1.6
2019-05-17,05:40:00,DRY,2.77,10.87,9.0,771.00,1.3
2019-05-17,05:45:00,DRY,3.05,10.80,9.0,771.00,1.5
2019-05-17,05:50:00,DRY,1.40,10.77,9.0,771.00,0.6
2019-05-17,05:55:00,DRY,2.55,10.75,9.0,771.00,1.8
2019-05-17,06:00:00,DRY,1.60,10.73,9.0,771.00,1.3
2019-05-17,06:05:00,DRY,2.15,10.80,8.5,771.00,1.8
2019-05-17,06:10:00,DRY,0.97,10.67,9.0,771.00,3.1
2019-05-17,06:15:00,DRY,3.65,10.75,9.0,771.00,6.2
2019-05-17,06:20:00,DRY,2.20,10.70,10.0,771.00,11.8
2019-05-17,06:25:00,DRY,4.50,10.80,9.0,771.00,23.2
2019-05-17,06:30:00,DRY,2.23,11.03,9.3,771.00,36.6
2019-05-17,06:35:00,DRY,2.55,11.30,9.0,771.00,53.1
2019-05-17,06:40:00,DRY,2.03,11.33,9.0,771.00,73.9
2019-05-17,06:45:00,DRY,2.80,11.65,8.5,771.00,96.0
2019-05-17,06:50:00,DRY,2.37,11.87,9.0,771.00,117.0
2019-05-17,06:55:00,DRY,1.25,11.85,9.0,771.00,135.9
2019-05-17,07:00:00,DRY,1.97,11.63,9.0,771.00,155.1
2019-05-17,07:05:00,DRY,1.40,11.75,9.0,771.00,176.2
2019-05-17,07:10:00,DRY,1.67,11.60,10.0,771.00,198.1
2019-05-17,07:15:00,DRY,2.00,11.60,9.5,771.00,219.8
2019-05-17,07:20:00,DRY,0.80,11.77,10.0,771.00,238.8
2019-05-17,07:25:00,DRY,1.50,12.05,9.5,771.00,258.0
2019-05-17,07:30:00,DRY,1.93,12.13,9.0,771.00,277.8
2019-05-17,07:35:00,DRY,2.85,12.30,10.0,771.00,298.9
2019-05-17,07:40:00,DRY,1.70,12.33,10.3,771.00,320.4
2019-05-17,07:45:00,DRY,1.45,12.65,9.0,771.00,341.6
2019-05-17,07:50:00,DRY,2.73,12.73,10.0,771.33,362.7
2019-05-17,07:55:00,DRY,2.50,12.80,9.0,772.00,385.3
2019-05-17,08:00:00,DRY,1.70,12.67,8.7,771.33,406.5
2019-05-17,08:05:00,DRY,2.90,12.70,9.0,771.50,428.3
2019-05-17,08:10:00,DRY,3.70,12.67,9.0,771.67,448.8
2019-05-17,08:15:00,DRY,0.85,13.05,10.0,772.00,469.6
2019-05-17,08:20:00,DRY,2.00,13.33,9.7,772.00,490.8
2019-05-17,08:25:00,DRY,2.55,13.75,9.5,772.00,512.0
2019-05-17,08:30:00,DRY,3.53,13.47,10.7,771.67,532.2
2019-05-17,08:35:00,DRY,2.05,13.20,11.5,771.50,553.7
2019-05-17,08:40:00,DRY,2.83,13.73,11.7,772.00,572.4
2019-05-17,08:45:00,DRY,3.10,13.60,11.0,771.50,592.3
2019-05-17,08:50:00,DRY,1.47,13.67,12.7,772.00,612.8
2019-05-17,08:55:00,DRY,2.45,13.80,13.0,772.00,632.7
2019-05-17,09:00:00,DRY,1.63,14.07,13.3,772.00,650.8
2019-05-17,09:05:00,DRY,2.20,14.25,14.0,772.00,670.7
2019-05-17,09:10:00,DRY,1.83,14.40,13.7,772.00,688.1
2019-05-17,09:15:00,DRY,2.45,14.45,13.5,772.00,708.4
2019-05-17,09:20:00,DRY,1.97,14.47,13.7,772.00,725.2
2019-05-17,09:25:00,DRY,3.90,14.40,12.5,772.00,743.8
2019-05-17,09:30:00,DRY,2.17,14.37,12.3,772.00,762.2
2019-05-17,09:35:00,DRY,1.75,14.55,15.0,772.00,779.7
2019-05-17,09:40:00,DRY,1.73,14.80,13.0,772.00,797.3
2019-05-17,09:45:00,DRY,1.90,14.65,13.5,772.00,814.8
2019-05-17,09:50:00,DRY,2.40,14.73,12.7,772.00,831.6
2019-05-17,09:55:00,DRY,1.60,15.15,13.0,772.00,846.7
2019-05-17,10:00:00,DRY,1.67,15.23,13.0,772.00,863.7
2019-05-17,10:05:00,DRY,2.85,15.00,13.5,772.00,877.6
2019-05-17,10:10:00,DRY,2.63,14.90,15.3,772.00,891.8
2019-05-17,10:15:00,DRY,2.15,15.20,17.0,772.00,908.5
2019-05-17,10:20:00,DRY,2.83,15.17,16.7,772.00,921.4
2019-05-17,10:25:00,DRY,0.85,15.40,17.0,772.00,935.5
2019-05-17,10:30:00,DRY,1.93,15.23,16.3,772.00,948.8
2019-05-17,10:35:00,DRY,3.30,15.70,16.5,772.00,960.0
2019-05-17,10:40:00,DRY,2.70,15.37,16.3,772.00,973.4
2019-05-17,10:45:00,DRY,3.05,15.75,18.5,772.00,983.2
2019-05-17,10:50:00,DRY,2.30,15.67,19.3,772.00,995.6
2019-05-17,10:55:00,DRY,1.60,16.20,18.5,772.00,1005.2
2019-05-17,11:00:00,DRY,3.20,15.93,18.7,772.00,1016.7
2019-05-17,11:05:00,DRY,2.75,15.70,18.5,772.00,1025.6
2019-05-17,11:10:00,DRY,1.93,16.20,19.0,772.00,1038.0
2019-05-17,11:15:00,DRY,2.30,16.55,19.0,772.00,1047.5
2019-05-17,11:20:00,DRY,3.43,16.40,18.7,772.00,1056.3
2019-05-17,11:25:00,DRY,2.65,16.60,18.5,772.00,1062.7
2019-05-17,11:30:00,DRY,2.60,16.47,21.3,772.00,1073.7
2019-05-17,11:35:00,DRY,3.25,16.50,21.5,772.00,1080.1
2019-05-17,11:40:00,DRY,4.13,15.53,21.0,772.33,1087.4
2019-05-17,11:45:00,DRY,3.25,16.95,20.0,772.00,1093.8
2019-05-17,11:50:00,DRY,3.53,16.10,22.7,772.33,1102.8
2019-05-17,11:55:00,DRY,3.60,16.40,22.5,772.00,1108.7
2019-05-17,12:00:00,DRY,2.83,16.37,22.7,772.00,1113.1
2019-05-17,12:05:00,DRY,3.55,16.20,24.0,772.50,1118.1
2019-05-17,12:10:00,DRY,3.03,16.43,23.3,772.00,1122.2
2019-05-17,12:15:00,DRY,3.30,15.65,23.0,772.00,1125.2
2019-05-17,12:20:00,DRY,2.37,16.17,24.7,772.00,1129.8
2019-05-17,12:25:00,DRY,2.80,16.20,25.5,772.00,1136.0
2019-05-17,12:30:00,DRY,3.17,16.27,26.7,772.00,1135.0
2019-05-17,12:35:00,DRY,2.30,16.10,29.0,772.00,1137.1
2019-05-17,12:40:00,DRY,1.90,16.40,28.7,772.00,1140.8
2019-05-17,12:45:00,DRY,2.55,16.10,29.0,772.00,1144.8
2019-05-17,12:50:00,DRY,3.60,15.57,26.7,772.00,1146.2
2019-05-17,12:55:00,DRY,3.40,16.85,24.5,772.00,1141.8
2019-05-17,13:00:00,DRY,1.93,16.90,26.3,772.00,1147.6
2019-05-17,13:05:00,DRY,3.65,17.00,21.5,772.00,1148.0
2019-05-17,13:10:00,DRY,3.33,16.07,25.3,772.00,1149.0
2019-05-17,13:15:00,DRY,4.85,16.70,24.0,772.00,1149.1
2019-05-17,13:20:00,DRY,2.80,17.10,25.0,772.00,1149.6
2019-05-17,13:25:00,DRY,2.10,15.85,18.0,772.00,1150.2
2019-05-17,13:30:00,DRY,4.80,16.00,27.0,772.00,1150.4
2019-05-17,13:35:00,DRY,0.80,16.80,23.0,772.00,1145.4
2019-05-17,13:40:00,DRY,1.70,16.20,20.7,772.00,1142.9
2019-05-17,13:45:00,DRY,2.40,16.00,23.0,772.00,1140.4
2019-05-17,13:50:00,DRY,2.97,16.17,26.0,772.00,1136.1
2019-05-17,13:55:00,DRY,3.55,16.20,22.0,772.00,1133.4
2019-05-17,14:00:00,DRY,2.17,15.93,22.0,772.00,1126.9
2019-05-17,14:05:00,DRY,1.35,16.65,18.0,772.00,1124.2
2019-05-17,14:10:00,DRY,3.10,16.43,20.3,772.00,1118.1
2019-05-17,14:15:00,DRY,3.80,16.20,19.0,772.00,1112.5
2019-05-17,14:20:00,DRY,2.60,16.37,14.0,772.00,1107.3
2019-05-17,14:25:00,DRY,2.50,16.30,14.0,772.00,1102.0